Location: Caltech
(34.1382°N, 118.1253°W)
Time: 01:42:33
(UTC-07:00)

Iridium 59 - Visible Passes

Search period start: 30 June 2016 00:00
Search period end: 10 July 2016 00:00
Orbit: 776 x 779 km, 86.4° (Epoch: 29 June)

Date Brightness Start Highest point End Pass type
(mag) Time Alt. Az. Time Alt. Az. Time Alt. Az.
30 Jun 6.7 21:42:50 10° NE 21:45:57 16° ENE 21:46:32 15° E visible
30 Jun 5.7 23:21:54 10° NNW 23:26:53 47° W 23:27:01 47° W visible
01 Jul 4.8 22:48:12 10° N 22:53:27 88° E 22:53:43 81° SSE visible
02 Jul 5.4 22:14:54 10° NNE 22:19:53 45° E 22:20:26 43° ESE visible
02 Jul 7.2 23:56:57 10° NW 00:00:09 17° W 00:00:54 16° W visible
03 Jul 6.3 21:42:05 10° NNE 21:46:12 23° E 21:47:09 22° E visible
03 Jul 6.3 23:22:19 10° NNW 23:26:53 32° W 23:27:38 30° WSW visible
04 Jul 7.0 21:10:28 10° NE 21:12:24 12° ENE 21:13:53 11° E visible
04 Jul 5.3 22:48:22 10° N 22:53:31 62° W 22:54:22 54° SW visible
05 Jul 5.0 22:14:49 10° N 22:20:01 68° E 22:21:07 53° SE visible
05 Jul 7.6 23:58:52 10° WNW 00:00:02 11° WNW 00:01:11 10° W visible
06 Jul 5.8 21:41:40 10° NNE 21:46:25 34° E 21:47:52 29° ESE visible
06 Jul 6.9 23:22:58 10° NW 23:26:50 22° W 23:28:22 19° WSW visible
07 Jul 6.6 21:09:10 10° NE 21:12:41 18° E 21:14:39 15° ESE visible
07 Jul 6.0 22:48:40 10° NNW 22:53:32 41° W 22:55:08 32° SW visible
08 Jul 5.0 22:14:53 10° N 22:20:07 81° W 22:21:55 42° S visible
09 Jul 5.2 21:41:29 10° N 21:46:35 51° E 21:48:43 32° SE visible
09 Jul 7.5 23:24:02 10° NW 23:26:45 14° W 23:29:13 11° WSW visible
